EW2295 Weather Reports


time (UTC)temp
C
wind
direction
speed
KPH
gust
KPH
rain 1hr
cm
rain 24hr
cm
rain mn
cm
humidity
%
barometer
mb
20260503222546 13 0 0.0 0.0 0.00 0.00 0.00 82 1013.0
20260503222047 13 0 0.0 0.0 0.00 0.00 0.00 82 1013.0
20260503221554 14 0 0.0 0.0 0.00 0.00 0.00 81 1012.9
20260503221045 14 0 0.0 0.0 0.00 0.00 0.00 81 1013.0
20260503220545 14 0 0.0 0.0 0.00 0.00 0.00 80 1013.0
20260503215546 14 0 0.0 6.4 0.00 0.00 0.00 79 1013.0
20260503215047 15 0 0.0 6.4 0.00 0.00 0.00 79 1013.1
20260503214550 15 0 0.0 6.4 0.00 0.00 0.00 78 1013.1
20260503214046 15 0 0.0 9.7 0.00 0.00 0.00 77 1013.1
20260503213544 15 0 0.0 9.7 0.00 0.00 0.00 77 1013.2
20260503213052 15 212 0.0 8.0 0.00 0.00 0.00 77 1013.1
20260503212544 15 0 0.0 11.3 0.00 0.00 0.00 77 1013.1
20260503212044 15 0 0.0 11.3 0.00 0.00 0.00 77 1013.1
20260503211553 15 0 0.0 8.0 0.00 0.00 0.00 77 1013.1
20260503211047 15 0 0.0 6.4 0.00 0.00 0.00 77 1013.1
20260503210545 15 0 0.0 6.4 0.00 0.00 0.00 77 1013.1
20260503210052 15 0 0.0 6.4 0.00 0.00 0.00 77 1013.0
20260503205543 15 0 0.0 8.0 0.00 0.10 0.00 77 1013.1
20260503205044 15 0 0.0 8.0 0.00 0.10 0.00 77 1013.1
20260503204552 15 0 0.0 8.0 0.00 0.10 0.00 78 1013.0
20260503204043 15 0 0.0 6.4 0.00 0.10 0.00 78 1013.1
20260503203542 15 0 0.0 8.0 0.00 0.10 0.00 78 1013.1
20260503203050 15 0 0.0 8.0 0.00 0.10 0.00 78 1013.2
20260503202543 15 0 0.0 8.0 0.00 0.10 0.00 78 1013.3
20260503202045 15 0 0.0 0.0 0.00 0.10 0.00 78 1013.2
20260503201553 15 0 0.0 0.0 0.00 0.10 0.00 78 1013.2
20260503201042 15 0 0.0 0.0 0.00 0.10 0.00 79 1013.2
20260503200545 15 0 0.0 0.0 0.00 0.10 0.00 79 1013.2
20260503200049 15 0 0.0 0.0 0.00 0.10 0.00 78 1013.2
20260503195544 15 0 0.0 0.0 0.00 0.10 0.00 78 1013.2
20260503195045 15 0 0.0 0.0 0.00 0.10 0.00 79 1013.1
20260503194550 15 0 0.0 0.0 0.00 0.10 0.00 79 1013.2
20260503194046 15 0 0.0 0.0 0.00 0.10 0.00 79 1013.1
20260503193546 15 0 0.0 0.0 0.00 0.10 0.00 78 1013.1
20260503193058 16 0 0.0 0.0 0.00 0.10 0.00 78 1012.9
20260503192545 16 0 0.0 0.0 0.00 0.10 0.00 78 1013.0
20260503192045 16 0 0.0 0.0 0.00 0.10 0.00 78 1012.9
20260503191553 16 0 0.0 0.0 0.00 0.10 0.00 78 1012.9
20260503191043 16 0 0.0 0.0 0.00 0.10 0.00 77 1012.9
20260503190549 16 0 0.0 0.0 0.00 0.10 0.00 77 1012.8
20260503190056 16 0 0.0 0.0 0.00 0.10 0.00 78 1012.9
20260503185542 16 0 0.0 0.0 0.00 0.23 0.00 78 1012.8
20260503185043 16 0 0.0 0.0 0.00 0.23 0.00 78 1012.8
20260503184603 16 0 0.0 0.0 0.00 0.23 0.00 78 1012.7
20260503184044 16 0 0.0 0.0 0.00 0.23 0.00 78 1012.6
20260503183544 16 0 0.0 0.0 0.00 0.23 0.00 78 1012.5
20260503183053 16 0 0.0 0.0 0.00 0.23 0.00 78 1012.5
20260503182548 16 0 0.0 0.0 0.00 0.23 0.00 77 1012.5
20260503182046 16 0 0.0 6.4 0.00 0.23 0.00 77 1012.4
20260503181552 16 0 0.0 12.9 0.00 0.23 0.00 76 1012.4
20260503181047 16 0 0.0 12.9 0.00 0.23 0.00 76 1012.4
20260503180546 16 239 0.0 12.9 0.00 0.23 0.00 76 1012.3
20260503180049 16 215 0.0 12.9 0.00 0.23 0.00 76 1012.3
20260503175545 16 0 0.0 17.7 0.00 0.23 0.00 76 1012.4
20260503175045 16 0 1.6 17.7 0.00 0.23 0.00 76 1012.4
20260503174612 16 0 0.0 22.5 0.00 0.23 0.00 76 1012.4
20260503174045 16 0 1.6 22.5 0.00 0.23 0.00 76 1012.5
20260503173545 16 228 4.8 19.3 0.00 0.23 0.00 75 1012.5
20260503173050 16 249 0.0 24.1 0.00 0.23 0.00 75 1012.5
20260503172543 16 0 4.8 24.1 0.00 0.23 0.00 74 1012.5
20260503172042 16 0 3.2 17.7 0.00 0.23 0.00 74 1012.5
20260503171547 16 271 3.2 22.5 0.00 0.23 0.00 74 1012.4
20260503171045 16 0 0.0 22.5 0.00 0.23 0.00 74 1012.3
20260503170545 17 0 4.8 22.5 0.00 0.23 0.00 73 1012.3
20260503150542 18 188 0.0 16.1 0.00 0.23 0.00 60 1012.0
20260503131045 21 0 3.2 24.1 0.00 0.23 0.00 46 1012.0
20260503130545 21 194 4.8 24.1 0.00 0.23 0.00 46 1012.0
20260503110542 23 227 11.3 29.0 0.00 0.23 0.00 35 1012.0
20260503100106 21 0 1.6 16.1 0.00 0.23 0.00 44 1012.4
20260503081556 19 191 4.8 17.7 0.00 0.23 0.00 56 1012.8
20260503081044 18 178 3.2 17.7 0.00 0.23 0.00 57 1012.7
20260503080544 18 138 3.2 16.1 0.00 0.23 0.00 57 1012.8
20260503072545 17 194 3.2 20.9 0.00 0.23 0.00 64 1012.5
20260503072046 17 239 4.8 19.3 0.00 0.23 0.00 66 1012.7
20260503071552 17 191 3.2 17.7 0.00 0.23 0.00 69 1012.7
20260503071041 16 0 1.6 14.5 0.00 0.23 0.00 76 1012.7
20260503070546 16 0 1.6 14.5 0.00 0.23 0.00 83 1012.7
20260503055041 12 0 0.0 0.0 0.00 0.23 0.00 96 1012.8
20260503054552 12 0 0.0 0.0 0.00 0.23 0.00 96 1012.8
20260503054044 12 0 0.0 0.0 0.00 0.23 0.00 96 1012.8
20260503053541 12 0 0.0 0.0 0.00 0.23 0.00 96 1012.8
20260503053055 11 0 0.0 0.0 0.00 0.23 0.00 96 1012.7
20260503052546 11 0 0.0 0.0 0.00 0.23 0.00 96 1012.7
20260503052045 11 0 0.0 0.0 0.00 0.23 0.00 96 1012.7
20260503051555 11 0 0.0 0.0 0.00 0.23 0.00 96 1012.7
20260503051043 11 0 0.0 0.0 0.00 0.23 0.00 96 1012.6
20260503050542 11 0 0.0 0.0 0.00 0.23 0.00 96 1012.5
20260503045542 11 0 0.0 0.0 0.00 0.23 0.00 96 1012.5
20260503045041 11 0 0.0 0.0 0.00 0.23 0.00 96 1012.5
20260503044558 11 0 0.0 0.0 0.00 0.23 0.00 96 1012.6
20260503044042 11 0 0.0 0.0 0.00 0.23 0.00 96 1012.7
20260503043545 11 0 0.0 0.0 0.00 0.23 0.00 96 1012.8
20260503043059 12 0 0.0 0.0 0.00 0.23 0.00 96 1012.7
20260503042545 12 0 0.0 0.0 0.00 0.23 0.00 96 1012.8
20260503042042 12 0 0.0 0.0 0.00 0.23 0.00 96 1012.9
20260503041558 11 0 0.0 0.0 0.00 0.23 0.00 96 1012.8
20260503041041 11 0 0.0 0.0 0.00 0.23 0.00 96 1012.9
20260503040543 12 0 0.0 0.0 0.00 0.23 0.00 96 1013.0
20260503040100 12 0 0.0 0.0 0.00 0.23 0.00 96 1013.1
20260503035542 12 0 0.0 0.0 0.00 0.23 0.00 96 1013.0
20260503035042 12 0 0.0 0.0 0.00 0.23 0.00 96 1013.0
20260503034611 12 0 0.0 0.0 0.00 0.23 0.00 96 1013.0
20260503034044 12 0 0.0 0.0 0.00 0.23 0.00 96 1013.1
20260503033545 11 0 0.0 0.0 0.00 0.23 0.00 96 1013.1
20260503033059 11 0 0.0 0.0 0.00 0.23 0.00 96 1013.1
20260503032542 12 0 0.0 0.0 0.00 0.23 0.00 96 1013.4
20260503032044 12 0 0.0 0.0 0.00 0.23 0.00 96 1013.3
20260503031556 12 0 0.0 0.0 0.00 0.23 0.00 96 1013.3
20260503031046 12 0 0.0 0.0 0.00 0.23 0.00 96 1013.4
20260503030545 12 0 0.0 0.0 0.00 0.23 0.00 96 1013.4
20260503030052 12 0 0.0 0.0 0.00 0.23 0.00 96 1013.4
20260503025547 12 0 0.0 0.0 0.00 0.23 0.00 96 1013.5
20260503025047 12 0 0.0 0.0 0.00 0.23 0.00 96 1013.5
20260503024552 12 0 0.0 0.0 0.00 0.23 0.00 95 1013.5
20260503024047 12 0 0.0 0.0 0.00 0.23 0.00 95 1013.5
20260503023546 12 0 0.0 0.0 0.00 0.23 0.00 95 1013.6
20260503023053 12 0 0.0 0.0 0.00 0.23 0.00 95 1013.7
20260503022547 12 0 0.0 0.0 0.00 0.23 0.00 95 1013.7
20260503022050 12 0 0.0 0.0 0.00 0.23 0.00 95 1013.7
20260503021552 12 0 0.0 0.0 0.00 0.23 0.00 95 1013.6
20260503021050 12 0 0.0 0.0 0.00 0.23 0.00 95 1013.7
20260503020547 12 0 0.0 0.0 0.00 0.23 0.00 95 1013.9
20260503020049 12 0 0.0 0.0 0.00 0.23 0.00 95 1013.7
20260503015546 12 0 0.0 0.0 0.00 0.23 0.00 95 1013.8
20260503015049 12 0 0.0 0.0 0.00 0.23 0.00 95 1013.9
20260503014603 12 0 0.0 0.0 0.00 0.23 0.00 95 1013.9
20260503014051 12 0 0.0 0.0 0.00 0.23 0.00 95 1013.8
20260503013546 12 0 0.0 0.0 0.00 0.23 0.00 95 1014.0
20260503013050 12 0 0.0 0.0 0.00 0.23 0.00 95 1014.0
20260503012546 12 0 0.0 0.0 0.00 0.23 0.00 95 1014.2
20260503012046 12 0 0.0 0.0 0.00 0.23 0.00 95 1014.2
20260503011552 12 0 0.0 0.0 0.00 0.23 0.00 95 1014.1
20260503011046 12 0 0.0 0.0 0.00 0.23 0.00 95 1014.4
20260503010547 12 0 0.0 0.0 0.00 0.23 0.00 95 1014.2
20260503010052 12 0 0.0 0.0 0.00 0.23 0.00 95 1014.6
20260503005547 12 0 0.0 0.0 0.00 0.23 0.00 95 1014.4
20260503005047 12 0 0.0 0.0 0.00 0.23 0.00 95 1014.1
20260503004556 12 0 0.0 0.0 0.00 0.23 0.00 95 1014.2
20260503004047 12 0 0.0 0.0 0.00 0.23 0.00 95 1014.1
20260503003546 12 0 0.0 0.0 0.00 0.23 0.00 95 1014.2
20260503003100 12 0 0.0 0.0 0.00 0.23 0.00 95 1014.1
20260503002546 12 0 0.0 0.0 0.00 0.23 0.00 95 1014.3
20260503002047 13 0 0.0 0.0 0.00 0.23 0.00 95 1014.3
20260503001607 13 0 0.0 0.0 0.00 0.23 0.00 95 1014.3
20260503001045 13 0 0.0 0.0 0.00 0.23 0.00 95 1014.4
20260503000546 13 0 0.0 0.0 0.00 0.23 0.00 95 1014.5
20260503000053 13 0 0.0 0.0 0.00 0.23 0.00 95 1014.6
20260502235547 13 0 0.0 0.0 0.00 0.23 0.00 95 1014.7
20260502235047 13 0 0.0 0.0 0.00 0.23 0.00 95 1015.0
20260502234554 13 0 0.0 0.0 0.00 0.23 0.00 95 1014.9
20260502234044 13 0 0.0 0.0 0.00 0.23 0.00 95 1015.1
20260502233545 13 0 0.0 0.0 0.00 0.23 0.00 95 1015.1
20260502233057 13 0 0.0 0.0 0.00 0.23 0.00 95 1015.2
20260502232544 13 0 0.0 0.0 0.00 0.23 0.00 95 1015.2
20260502232047 13 0 0.0 0.0 0.00 0.23 0.00 95 1015.2
20260502231551 13 0 0.0 0.0 0.00 0.23 0.00 95 1015.3
20260502231047 13 0 0.0 0.0 0.00 0.23 0.00 95 1015.4
20260502230547 13 0 0.0 0.0 0.00 0.23 0.00 95 1015.4
20260502230055 13 0 0.0 0.0 0.00 0.23 0.00 94 1015.4
20260502225546 13 0 0.0 0.0 0.00 0.23 0.00 94 1015.4
20260502225045 13 0 0.0 0.0 0.00 0.23 0.00 94 1015.4
20260502224556 13 0 0.0 0.0 0.00 0.23 0.00 94 1015.4
20260502224046 13 0 0.0 0.0 0.00 0.23 0.00 94 1015.4
20260502223548 13 0 0.0 0.0 0.00 0.23 0.00 94 1015.4
20260502223056 13 0 0.0 0.0 0.00 0.23 0.00 94 1015.4